Weather in Piatyhirske

Ukraine / Kharkiv Region     49°26′28″N   36°36′05″E
temp.,
°C
wind,
m/s
gust,
m/s
humid.,
%
clouds,
%
prec.,
mm/h
press.,
hPa
HPBL,
m
29 july, thu
thu2900:00+22sw37575 0.0 1013133
03:00+21sw496414 0.0 1012170
06:00+19wsw24810 0.4 101290
09:00+26wsw33590 0.5 1012575
12:00+31sw344230 0.0 10112019
15:00+32wsw343574 0.0 10092006
18:00+32wnw233397 0.0 10082310
21:00+22sw5107788 0.0 1009199
30 july, fri
fri3000:00+19sw358799 0.4 1010112
03:00+19sw339046 0.4 100957
06:00+20wsw258785 0.0 1009133
09:00+26ssw446371 0.0 1009484
12:00+30sw5647100 0.0 10091459
15:00+32sw454278 0.0 10072238
18:00+28wnw5654100 0.5 1005804
21:00+19ese5991100 6.2 1009259
31 july, sat
sat3100:00+19wsw1191100 2.3 100914
03:00+18nnw24944 2.3 100986
06:00+20nnw139137 0.0 1010104
09:00+25nne35680 0.0 1011674
12:00+29n45400 0.0 10111943
15:00+30nne44330 0.0 10102092
18:00+29ne44370 0.0 10101263
21:00+24ese22520 0.0 101111
1 august, sun
sun100:00+22sse11570 0.0 101211
03:00+21wnw00600 0.0 101211
06:00+21e11620 0.0 101311
09:00+27ese23430 0.0 1012446
12:00+32se21310 0.0 10121948
15:00+33ese10260 0.0 10112447
18:00+32se1128100 0.0 10102562
21:00+26s3445100 0.0 101151
2 august, mon
mon200:00+24sw22465 0.0 101016
03:00+23wsw11500 0.0 101011
06:00+23ssw22640 0.0 101019
09:00+29ssw35443 0.0 1009459
12:00+33ssw453121 0.0 10092169
15:00+35sw56276 0.0 10082796
18:00+34ssw67310 0.0 10072128
21:00+25wnw101761100 0.0 1008480